CAPE
0 0 0 0 0 0 0 0 0 0 0 0 0 0 0 0 0 0 0 7 1 2 3 2 1 1 1 13 2 0 0 1 223 322 574 822 781 661 678 546 1118 1242 1256 1104 1056 726 636 644 563 825 804 902 1016 1551 1763 1987 1968 2075 2187 1921 2295 2002 1788 2071 2031 1807 1704 1655 2043 2146 1921 1989 1908 2358 2086 1880 1419 1273 930 1717 2383 3821 3849 3773 3843 3834
0 0 0 0 0 0 0 0 0 0 0 0 0 0 0 0 0 0 1 3 3 0 4 4 0 1 2 5 6 6 0 0 0 495 208 390 524 937 870 819 1254 1297 1195 1169 1020 904 772 528 525 557 1109 1174 1164 1650 1835 1771 1819 2168 1949 1922 2216 2084 2021 2012 1843 1876 1842 1811 1844 2132 2047 1610 1446 2021 1974 1831 1613 868 1353 3072 3032 3608 3391 3833 3798 3799
0 0 0 0 0 0 0 0 0 0 0 0 0 0 0 0 0 0 0 2 9 0 1 2 0 1 2 1 44 23 0 4 1 925 484 892 1386 1469 1261 1035 1192 1264 1536 1328 1329 1169 948 712 698 652 1201 860 976 1188 1407 1923 2031 2250 2240 2079 2207 2192 1980 2033 1997 2137 2053 1903 2043 2087 2199 1761 1479 1626 1621 1428 1540 1799 1349 2294 3034 3144 3617 3831 3693 3614
0 0 0 0 0 0 0 0 0 0 0 0 0 0 0 0 0 0 0 2 0 3 1 2 9 1 1 1 14 28 24 4 0 1553 519 1034 1008 1090 1285 1172 1048 976 1553 1287 1259 1049 948 920 822 975 1445 1540 1138 1775 1539 1670 2193 2195 2582 2307 2438 2355 1912 2063 1948 2191 2030 2166 2476 2676 2486 1821 1457 1542 1603 1998 2338 2146 1627 1445 2498 3598 3699 3637 3429 3227
0 0 0 0 0 0 0 0 0 0 0 0 0 0 0 0 0 0 1 0 10 6 0 3 1 1 0 0 3 11 7 20 4 0 1143 990 857 1139 1504 1327 1214 1197 1733 1611 1305 1135 1036 1058 965 1255 1618 1239 1351 1424 1739 1712 1820 1789 2524 2580 2605 2692 1945 2106 2077 2164 2150 2397 2479 2602 2525 2068 2201 2627 1994 1898 2116 2276 2150 1576 1950 3201 3505 3586 3238 3279
0 0 0 0 0 0 0 0 0 0 0 0 0 0 0 0 0 0 0 2 1 1 2 2 0 4 3 0 0 3 4 38 19 16 4890 1031 1565 1634 1254 1280 1105 845 1320 1675 1534 1202 1159 1424 1454 1583 1733 1297 1303 1824 2142 1793 2008 2125 2491 2762 2672 2836 2242 2230 2222 2268 2295 2388 2418 2528 2475 2170 2129 2752 2509 2111 2060 1978 2006 1033 1031 2731 2817 3072 3137 3393
0 0 0 0 0 0 0 0 0 0 0 0 0 0 0 0 0 0 0 0 1 0 0 6 1 6 2 0 3 5 7 21 6 82 31 745 1272 1012 1256 1338 1237 1132 1313 1495 1217 1414 1399 1327 1198 1524 1935 1620 1579 1725 2059 2108 2421 2581 2683 2877 2840 2830 2686 2384 2377 2221 2512 2442 2632 2506 2238 2288 2129 2448 2626 2733 2076 2153 2317 1819 2186 3042 3119 3379 3176 2913
0 0 0 0 0 0 0 0 0 0 0 0 0 0 0 0 0 0 0 0 0 0 4 5 0 0 1 2 0 0 6 11 12 66 83 19 1115 656 1105 1134 1099 1017 1069 1424 1433 1851 1372 1468 1729 1752 2021 1761 1740 1825 1944 1994 2508 2802 2885 2918 2889 2913 2828 2590 2530 2253 2574 2512 2614 2517 2227 2392 2489 2153 2822 3040 2950 2957 2870 2254 1884 3176 3227 3338 3219 2809
0 0 0 0 0 0 0 0 0 0 0 0 0 0 0 0 0 0 0 0 0 1 0 1 12 0 0 0 0 0 1 1 0 11 42 189 84 875 779 690 851 739 989 1308 1168 1558 1773 2118 1677 1615 2108 1866 1894 2083 2129 2551 2807 2877 2971 3025 3023 3031 2976 2843 3020 2427 2711 2817 2679 2662 2443 2635 2659 2523 2869 3091 3115 3031 3153 2743 2596 3124 3257 3499 3469 3172
0 0 0 0 0 0 0 0 0 0 0 0 0 0 0 0 0 0 0 0 0 0 0 0 0 0 3 0 0 0 0 0 0 0 0 58 47 194 642 966 1143 1193 1339 1017 1534 1509 1901 1921 1605 1444 1646 1995 2120 2165 2748 2608 2716 2829 2985 3079 3137 3144 3018 2966 3302 2792 2855 2950 2870 2757 2625 2762 2866 2876 2829 3030 3370 3373 3434 3290 2956 3117 3386 3468 3490 3228
0 0 0 0 0 0 0 0 0 0 0 0 0 0 0 0 0 0 0 0 0 0 0 0 0 0 0 0 0 0 0 0 0 1 0 31 22 786 14 656 1433 1019 798 1147 1294 1414 1713 1496 1554 1556 1951 2381 1846 2411 2787 2420 2741 2649 2792 3145 3170 3272 3143 3070 3377 3015 3002 3007 2909 2862 2829 2850 3026 3241 3212 3360 3717 3638 3592 3315 3214 2892 4006 3340 3438 3030
0 0 0 0 0 0 0 0 0 0 0 0 0 0 0 0 0 0 0 0 0 0 0 0 0 0 0 0 0 0 0 0 0 0 5 6 106 391 873 340 671 866 704 784 1332 1452 1649 1483 1575 1523 2157 2676 2471 2542 2727 2403 2660 2876 2974 3059 3232 3364 3280 3140 3319 3203 3031 3036 3084 2911 3022 2910 3087 3234 3186 3399 3588 3488 3372 3138 3267 3453 3709 3866 3855 3891
0 0 0 0 0 0 0 0 0 0 0 0 0 0 0 0 0 0 0 0 0 0 0 0 0 0 0 0 0 0 0 0 0 0 5 1 4 194 304 893 572 628 953 1001 1282 1707 1901 1612 1585 1791 2524 2581 2610 2961 2986 2626 2493 2717 3174 3289 3302 3389 3452 3370 3264 3277 3094 3008 3106 3043 3072 3104 3295 3429 3320 3369 3302 3600 3369 3186 3182 3943 3667 3953 4046 4113
0 0 0 0 0 0 0 0 0 0 0 0 0 0 0 0 0 0 0 0 0 0 0 0 0 0 0 0 0 0 0 0 0 0 0 424 321 304 232 230 1007 895 691 870 1108 909 1020 1277 1689 2394 2465 2621 2831 3078 2967 2699 2938 3124 3137 3431 3373 3500 3526 3534 3386 3447 3314 3216 3286 3265 3190 3248 3350 3548 3435 3307 3148 3638 3661 3679 3314 3399 3696 3847 3764 3849
0 0 0 0 0 0 0 0 0 0 0 0 0 0 0 0 0 0 0 0 0 0 0 0 0 0 0 0 0 0 0 0 0 0 0 2 306 381 148 289 658 880 1078 1061 1155 1450 1574 2009 2213 2186 2512 3115 3240 2902 2578 2698 3123 3377 3638 3726 3719 3642 3546 3557 3489 3575 3536 3407 3419 3446 3421 3426 3375 3479 3400 3191 3002 3088 3943 4013 3773 3626 3480 3781 3618 3481
0 0 0 0 0 0 0 0 0 0 0 0 0 0 0 0 0 0 0 0 0 0 0 0 0 0 0 0 0 0 0 0 0 0 0 30 17 204 389 446 158 1107 894 1096 1184 1329 1634 1985 1798 1760 3139 3417 3248 3055 2657 2922 3250 3467 3715 3869 3839 3777 3623 3726 3717 3634 3672 3612 3486 3405 3396 3442 3590 3466 3323 3207 3089 3124 3531 4240 4183 4215 3988 3750 3904 3864
0 0 0 0 0 0 0 0 0 0 0 0 0 0 0 0 0 0 0 0 0 0 0 0 0 0 0 0 0 0 0 0 0 0 0 0 188 465 459 606 205 98 794 847 915 1256 1304 1714 2613 2809 3018 2958 3049 2744 2953 3159 3460 3593 3894 4070 4066 4087 3909 3654 3668 3656 3646 3761 3590 3446 3283 3476 3603 3647 3291 3081 3249 2570 3007 3644 4388 4479 4166 3912 3926 4046
0 0 0 0 0 0 0 0 0 0 0 0 0 0 0 0 0 0 0 0 0 0 0 0 0 0 0 0 0 0 0 0 0 0 0 1 50 566 424 524 373 55 1340 1211 1196 1080 1111 1227 2463 2792 2736 3054 3132 2836 3210 3573 3626 3900 4118 4205 4228 4350 4226 4022 3803 3774 4022 3854 3685 3408 3351 3413 3474 3270 2990 2933 3050 2731 2688 2985 3722 3808 4187 3818 3382 3463
0 0 0 0 0 0 0 0 0 0 0 0 0 0 0 0 0 0 0 0 0 0 0 0 0 0 0 0 0 0 0 0 0 0 0 0 0 481 420 569 824 588 544 468 775 1161 1433 1874 2088 3353 2979 3134 3332 3466 3447 3745 3503 3780 4017 4284 4308 4208 4391 4220 3695 3985 3916 3770 3401 3347 3474 3459 3435 3124 2972 3019 3108 2858 2572 2385 3081 3183 3366 3892 3609 3184
0 0 0 0 0 0 0 0 0 0 0 0 0 0 0 0 0 0 0 0 0 0 0 0 0 0 0 0 0 0 0 0 0 0 0 0 2 100 261 833 788 604 863 1082 983 1312 1399 1516 2758 3152 3120 3183 3449 3336 3043 3121 3030 3389 3688 4297 4606 4668 4675 4507 4261 4244 4110 3773 3748 3756 3563 3427 3342 3396 3175 3092 3259 3112 2589 2514 2468 2705 2628 3541 3733 3599
0 0 0 0 0 0 0 0 0 0 0 0 0 0 0 0 0 0 0 0 0 0 0 0 0 0 0 0 0 0 0 0 0 0 0 0 0 368 1059 824 792 685 794 1126 905 1276 2083 2680 2945 3238 3216 3238 3390 3522 3331 3093 3064 3045 3536 4030 4172 4550 4473 4317 4130 3933 4000 4063 3721 3895 3669 3550 3507 3401 3337 3374 3071 3051 2900 2631 2500 2712 2709 3272 3510 3659
0 0 0 1 5 0 0 0 0 0 0 0 0 0 0 0 0 0 0 0 0 0 0 0 2 1 0 0 0 0 0 0 0 0 0 0 0 0 147 748 950 838 624 878 1062 1720 2217 2534 2965 3146 3296 3220 3301 3602 3476 3283 3141 3142 3595 3942 4160 4110 4454 4362 4076 4256 4174 4228 3677 3482 3672 3362 3436 3371 3144 3142 2935 2826 2908 3007 2809 2802 3267 3340 3576 3775
0 0 0 0 0 0 0 0 0 0 0 0 0 0 0 0 0 0 0 0 0 0 0 0 0 1 0 0 15 0 0 0 0 0 0 0 0 0 0 130 877 868 653 975 720 521 1558 2294 2597 3342 3855 3803 3562 3980 3642 3438 3443 3456 3557 3791 4069 4131 4287 4103 4196 4205 4295 4141 3732 3615 3485 3602 3533 3337 2992 2718 2669 2318 2331 2994 3169 3001 3274 3227 3196 3589
0 0 0 0 0 27 0 0 0 0 0 0 0 0 0 0 0 0 0 0 0 0 0 0 0 0 0 132 0 0 90 0 0 0 0 0 0 0 0 4 838 738 664 337 649 316 632 1618 2776 3601 4066 4120 4073 4299 4225 3959 3942 3581 3537 3644 3917 4042 4385 3998 3997 3902 4220 4001 3761 3602 3619 3721 3667 2889 2792 2776 2979 2593 2067 2229 2697 3096 3087 3119 2895 3340
0 0 0 0 3 0 1 0 0 0 0 0 0 0 0 0 0 0 0 0 0 0 0 0 0 0 0 158 36 1 0 0 0 0 0 0 0 0 0 14 585 895 901 540 935 857 1538 1988 3038 3757 4153 4288 4332 4316 4443 4366 4148 3694 3616 3626 3828 3912 4003 4228 4136 4072 3993 3744 3616 3481 3630 3469 3644 3795 3434 3177 2859 2606 2304 2168 2516 2880 2732 2615 2564 3130
0 0 0 0 0 26 2 0 0 0 0 0 0 0 0 0 0 0 0 0 0 46 11 0 0 14 0 193 0 0 0 0 0 0 0 0 0 0 0 395 1469 1306 1510 1097 1616 1200 1528 2077 3324 4083 4366 4501 4391 4095 4597 4614 4340 3784 3838 3965 3779 3842 3914 3954 3691 3841 4230 4270 3911 3668 3703 3544 3344 3348 3304 3312 2927 2522 2683 2192 2302 2823 3130 3164 2860 2698
0 0 0 0 0 48 0 1 0 0 0 0 0 0 0 0 0 0 0 0 0 13 3 20 67 90 50 0 0 0 0 0 0 0 0 0 0 148 2833 2935 2440 2260 1654 1569 2471 1500 1361 2048 4370 4464 4699 4680 4078 3865 4457 4562 4301 4095 4378 4259 3817 3898 3955 4373 4154 4238 4434 4386 3663 3858 3713 3857 3419 3186 3455 3496 3079 2687 2626 2532 2148 2204 2796 3232 3178 2568
0 0 0 0 0 5 356 99 2 0 2 0 0 0 0 0 0 0 0 0 58 0 1 193 1524 69 33 0 0 0 0 0 2 0 0 89 862 700 1541 2677 1584 1335 1935 2427 2272 4002 5064 2670 4507 5206 5085 4527 3991 3876 3948 4276 4242 4357 4666 4454 4133 3613 3701 3831 4301 4472 4543 4611 4339 4016 3767 4007 3398 3343 3608 3398 3405 3195 3007 2629 2388 2440 2767 3473 3368 2716
0 0 0 0 0 21 22 101 5 5 0 0 0 0 0 0 0 0 0 0 0 0 1 592 726 150 81 0 0 0 0 0 0 0 0 0 411 1130 1027 578 454 520 1103 1488 3160 4187 5555 6064 5587 5546 5165 4711 4141 3898 3945 3988 4169 4405 4730 4480 4354 3655 4004 4243 4471 4682 4622 4699 4608 4328 4034 4041 3952 3733 3551 3572 3705 3423 3127 2977 2917 2773 2721 3266 3562 3340
0 0 0 0 19 17 17 26 20 0 0 0 0 0 0 0 0 0 0 0 0 72 153 273 527 47 11 0 0 0 0 0 0 0 0 0 298 579 70 646 116 209 459 1629 2285 2774 4231 5033 6018 5662 5571 5133 4372 4364 3800 3898 4324 4474 4605 4489 4380 4336 4222 4557 4773 4864 4772 4777 4835 4713 4476 4413 4349 4205 3878 3879 3996 3742 3410 3203 3046 2829 2755 2844 3535 3753
0 0 0 0 5 16 0 0 0 0 0 0 0 0 0 0 0 0 0 0 0 0 0 0 486 275 16 40 8 0 10 1 10 0 0 147 4 0 28 0 8 197 1081 1170 3310 2608 3896 4149 4835 5690 5710 5555 4994 4760 4214 3954 4184 4478 3844 4074 4052 4542 4520 4743 5106 4942 4814 4842 5048 5075 4895 4794 4730 4646 4368 4209 4124 4079 3620 3264 3230 3049 3028 3060 3279 3641
0 0 0 0 0 2 0 0 0 0 0 0 0 0 0 0 0 0 0 0 0 0 2 0 155 3 43 1 0 21 16 11 29 83 28 38 0 23 0 5 112 571 678 761 1761 2227 4055 3941 4469 4859 5163 4933 4742 4844 4375 4485 4248 4169 3521 4068 4070 4251 4403 4289 5104 5160 5000 5005 5299 5362 5269 5155 5100 5004 4807 4430 4204 4267 4061 3491 3224 3276 3303 3323 3324 3650
0 0 0 0 0 1 1 0 0 0 0 0 0 0 0 0 15 0 0 0 0 0 0 0 0 23 128 53 2 0 0 0 0 0 0 0 93 12 2 8 14 104 902 2517 3411 3624 2684 2690 3226 4651 3946 3773 4102 3773 3700 4397 4106 3940 3944 3931 4200 4154 3833 3832 4221 5387 5252 5082 5449 5501 5516 5466 5344 5188 5079 4802 4427 4374 4463 4044 3532 3444 3463 3426 3520 3571
0 0 0 0 0 0 10 0 0 0 0 0 0 0 0 0 0 1 0 0 0 0 0 0 20 387 244 23 2 10 21 63 87 206 21 48 346 15 0 19 0 0 0 0 344 813 1553 2727 3594 4050 3854 4307 4316 3343 3356 3521 3809 4176 4218 4393 4623 4326 4035 3942 3784 5205 5396 5297 5564 5708 5728 5722 5558 5392 5263 5253 4987 4687 4775 4609 4034 3473 3438 3599 3820 3891
0 0 0 0 0 0 0 2 0 0 0 0 0 0 0 0 0 0 0 6 0 0 0 1 30 170 84 14 0 123 349 26 0 0 0 0 42 0 0 6 8 26 296 460 318 234 3626 3531 4186 3899 2816 2963 3545 4113 3633 3878 3974 4519 4774 4541 4822 4574 4381 4149 3990 4329 5540 5320 5590 5912 5936 5934 5841 5752 5574 5585 5480 5110 5043 5133 4857 4267 3639 3572 3921 4034
0 0 0 0 0 0 0 1 0 0 0 0 0 0 0 0 0 0 0 0 0 4 15 21 48 10 21 0 0 0 42 0 0 4 1 0 0 0 0 0 0 0 9 84 981 4594 4621 3784 3940 3024 5143 3873 1764 1408 3615 3795 3142 3888 4789 4544 4562 4617 4399 4310 4224 4171 5321 5319 5342 5757 5949 6052 6082 6071 5908 5780 5688 5516 5418 5567 5429 4935 4365 3823 3762 4090
0 0 0 0 0 0 0 0 0 0 0 0 0 0 0 0 0 0 0 0 0 2 0 8 0 0 0 0 0 0 3 5 16 0 0 0 0 0 0 0 0 0 73 294 2227 6064 5956 4894 4013 3889 3964 4133 2671 2224 2283 2992 3493 3831 4346 4514 3779 4338 4443 4426 4372 4159 4906 5260 5329 5602 5912 6064 6132 6158 6178 5979 5762 5622 5581 5738 5715 5467 4999 4450 4305 4446
0 0 0 0 0 0 0 0 0 0 0 0 0 0 0 0 0 0 0 0 0 0 0 1 0 0 0 0 0 0 0 0 0 0 0 0 0 82 2890 3109 3305 1754 3026 3579 4377 3893 4975 5383 5036 4672 4383 3572 3058 3226 3394 2334 3792 4403 4314 4448 4135 4160 4436 4302 4344 4231 4634 5382 5307 5432 5820 6148 6227 6105 5962 6107 5927 5703 5735 5752 5587 5496 5324 4846 4491 4313
0 0 0 0 0 0 4 0 0 9 0 0 0 0 4 1 0 0 0 0 0 0 0 0 0 0 0 0 0 0 0 0 0 148 409 455 1613 2811 2939 3115 2860 2516 2681 3927 3984 4402 4618 4614 4699 4010 3387 3544 3691 4265 4262 3838 3534 5630 4965 4650 3683 3447 3665 4165 4255 4295 4329 5272 5475 5528 5808 6167 6252 6198 5993 6110 5989 5837 5851 5715 5607 5589 5679 4988 4534 4140
0 0 0 0 0 0 8 2 0 6 1 4 1 0 4 2 0 5 0 1 0 0 0 0 0 0 7 1598 1037 7 0 0 153 980 1045 858 998 3079 3195 3610 3538 3386 3280 3420 3210 2916 3224 3465 3518 4336 4754 4680 4785 4590 4036 4135 4145 4752 5545 4528 3834 3593 3758 4095 4305 4475 4407 5169 5727 5634 5756 5889 6122 6078 5848 5869 6046 5964 5875 5694 5465 5640 5614 5309 4851 4430
3 0 0 0 0 0 0 0 2 0 0 0 37 2 10 12 11 10 8 725 740 498 338 17 460 1228 1008 1212 943 672 535 699 1077 1077 868 1103 1831 2976 3150 3411 3471 3302 3262 3034 2727 4230 3734 3123 3569 4301 4571 4517 4688 5783 5384 4698 4511 4562 5295 5189 4504 4119 3906 4437 4883 4984 4743 5026 5642 5643 5678 5762 6114 6033 5798 5785 5736 5724 5595 5434 5280 5216 5377 5230 4828 4770
3 3 0 0 0 0 0 0 0 0 8 0 10 1 14 1 4 17 559 345 445 255 426 665 810 705 706 703 827 942 993 833 835 774 1015 1132 1328 1942 2823 2745 3119 2978 2819 2748 2701 3286 3561 3428 4010 4506 4538 5134 4963 4506 4091 5226 5638 5320 5751 5502 5051 4894 4677 5356 5491 5365 5109 5153 5390 5582 5650 5747 5948 5840 5598 5663 5880 5938 5736 5511 5378 5346 5536 5219 5400 5396
0 1 2 0 0 0 0 0 0 0 0 0 1 2 10 24 104 142 185 215 40 146 151 420 755 603 558 585 475 526 540 558 698 812 1092 1321 1778 2060 2425 2605 3281 3039 2785 2845 2770 3269 3096 3076 3612 4186 4585 4316 4704 5120 4484 4920 5245 5277 5906 5578 5417 5392 5090 5833 5818 5714 5461 5494 5472 5703 5844 5812 5795 5624 5461 5712 5966 6014 5865 5814 5637 5471 5551 5579 5652 5735
8 0 1 3 0 0 0 0 0 4 117 9 33 2 0 8 4 58 0 17 22 61 129 267 423 410 371 426 172 286 56 347 480 449 463 926 1304 1618 1798 2432 2641 2461 2312 2181 2144 2398 2995 3483 4161 4173 4460 3881 4379 5166 5124 5029 5339 5298 5365 5438 5840 5778 5441 5872 6569 5947 5642 5421 5478 5647 5653 5620 5688 5747 5522 5757 5931 5929 5850 5818 5723 5737 5789 5797 5774 5813
0 12 109 104 1 0 0 0 69 74 70 38 22 0 0 4 7 0 4 0 8 2 1 51 92 249 306 290 148 81 246 329 427 396 523 871 1260 1411 1866 2273 2395 2407 2402 2491 2165 2763 2704 3150 3594 3630 4131 4072 4316 5197 5083 4744 5169 4874 4575 5193 5624 5878 5360 5602 6678 5997 5686 5565 5547 5656 5519 5616 5636 5795 5706 5785 5826 5830 5770 5715 5568 5728 5857 5930 5736 5671
29 21 0 0 29 1 2 0 32 56 74 55 0 0 0 0 0 0 0 0 0 0 0 1 0 62 77 197 306 658 717 748 684 390 546 726 956 1320 1808 2077 2087 2268 2424 2608 2746 2882 3089 3235 3481 3709 3796 3932 4020 4701 4986 4692 4805 4690 5035 5502 5802 5634 5375 5557 6300 5916 5691 5480 5485 5449 5132 5411 5391 5802 5453 5638 5529 5832 5847 5707 5490 5535 5891 5892 5625 5628
0 0 0 0 0 0 0 44 45 52 26 6 0 0 0 0 0 0 0 0 0 0 0 1 0 28 132 257 343 371 454 662 654 766 882 1176 1303 1593 1675 1962 2123 2383 2429 2945 3160 3177 3575 3647 3520 3400 3445 3535 3608 3912 4640 4882 5524 5770 5646 5442 4928 5103 5316 6110 6138 5956 5820 5716 5334 5367 5255 5044 4757 4964 5422 5684 5228 5588 5749 5555 5491 5465 5888 5705 5422 5478
0 142 1 0 1 0 2 6 54 28 0 0 0 0 0 0 0 0 0 0 0 0 0 0 0 0 0 23 245 445 461 532 834 1136 1214 1380 1704 1667 1956 1984 2327 2644 3084 3097 3010 2991 3277 3386 3259 3505 3500 3517 3789 3849 3652 4366 4556 4699 4500 4354 4882 4936 5733 6119 6150 5887 5998 5938 5650 5456 5391 5377 4886 5022 4554 4833 4584 4718 4626 4753 4768 5078 5733 5175 5095 5026
1 4 0 6 5 2 0 0 0 0 0 0 0 0 0 0 0 0 0 0 0 0 0 0 0 0 0 0 0 275 513 651 850 1058 1147 1134 1255 1720 1938 2190 2371 2713 3042 3364 3315 3175 3351 3060 3052 3022 2981 3144 3428 3581 3876 3960 3851 4157 3831 4104 5130 6042 5152 5399 5398 5614 5670 5649 5513 5767 5576 5706 5630 5396 4798 4414 4224 4384 4316 4441 4529 4420 4057 4243 4306 5082
0 0 0 0 0 0 0 0 0 0 0 0 0 0 0 0 0 0 0 0 0 0 0 0 0 0 0 0 0 0 246 596 675 806 1054 1250 1437 1634 1956 2185 2507 2650 2853 2926 2919 2878 2721 2571 2758 2818 2820 3050 2924 3083 3515 3813 4156 4158 4664 5271 5900 5353 5854 5564 5414 5375 5542 5462 5857 5756 5529 5547 5246 4954 4675 4066 3996 4176 4086 4281 4265 3981 3911 4011 4005 4142
0 0 2 2 0 0 0 0 30 10 3 0 0 0 0 0 0 0 0 0 0 0 0 0 0 0 0 0 0 0 42 399 604 645 948 1177 1597 2019 2100 2189 2408 2693 2783 2640 2751 2676 2346 2579 2466 2425 2475 2596 2452 2604 2867 3413 3281 4008 4303 5023 5584 5977 6067 5997 6347 5934 5557 5539 5368 5372 4984 4949 5607 5652 6202 4200 4226 4532 4173 4244 4225 3956 3766 3855 3878 3871
Wind_Speed
nan nan nan nan nan nan nan nan nan nan nan nan nan nan nan nan nan nan nan nan nan nan nan nan nan nan nan nan nan nan nan nan 20 24 15 18 16 13 17 13 14 14 10 9 10 9 14 10 9 9 8 8 8 11 10 9 9 6 8 6 7 8 6 8 6 6 6 6 6 5 3 3 2 5 4 5 5 4 4 3 3 4 2 3 4 5
nan nan nan nan nan nan nan nan nan nan nan nan nan nan nan nan nan nan nan nan nan nan nan nan nan nan nan nan nan nan nan nan nan 30 16 14 17 18 19 17 13 13 11 12 11 9 13 11 10 8 10 7 7 11 11 9 8 7 7 7 8 10 8 9 8 8 8 8 6 5 4 3 3 4 5 5 5 4 3 4 4 3 1 2 4 5
nan nan nan nan nan nan nan nan nan nan nan nan nan nan nan nan nan nan nan nan nan nan nan nan nan nan nan nan nan nan nan nan nan 37 23 15 14 18 19 18 18 16 13 13 14 11 10 11 12 11 11 8 6 9 10 10 10 7 9 8 9 10 9 11 10 9 7 7 6 4 5 5 6 5 5 5 5 7 5 4 3 3 1 1 3 5
nan nan nan nan nan nan nan nan nan nan nan nan nan nan nan nan nan nan nan nan nan nan nan nan nan nan nan nan nan nan nan nan nan 34 31 20 13 16 18 18 18 17 15 15 16 16 12 11 13 13 11 10 9 10 10 9 9 8 10 9 9 11 11 12 10 9 7 7 7 6 6 6 7 6 5 7 6 6 6 3 2 2 0 2 4 6
nan nan nan nan nan nan nan nan nan nan nan nan nan nan nan nan nan nan nan nan nan nan nan nan nan nan nan nan nan nan nan nan nan nan 38 23 20 15 16 19 18 17 17 15 17 16 14 12 13 13 13 9 9 8 9 8 9 8 9 10 10 13 11 12 10 8 7 7 7 7 8 8 9 10 8 7 7 5 5 3 1 1 1 2 4 6
nan nan nan nan nan nan nan nan nan nan nan nan nan nan nan nan nan nan nan nan nan nan nan nan nan nan nan nan nan nan nan nan nan nan 40 36 27 20 14 17 18 16 15 15 16 15 15 13 13 16 16 9 8 8 9 8 9 10 11 12 11 13 12 12 10 8 8 8 8 9 8 8 8 8 6 4 4 4 3 4 1 2 1 2 4 4
nan nan nan nan nan nan nan nan nan nan nan nan nan nan nan nan nan nan nan nan nan nan nan nan nan nan nan nan nan nan nan nan nan nan nan 42 35 22 15 18 20 18 17 16 15 16 15 14 12 15 16 10 7 8 10 10 10 11 12 13 12 13 13 11 10 8 10 10 9 9 8 8 6 5 6 5 5 5 5 6 5 3 1 1 4 6
nan nan nan nan nan nan nan nan nan nan nan nan nan nan nan nan nan nan nan nan nan nan nan nan nan nan nan nan nan nan nan nan nan nan nan nan 41 24 19 19 20 19 19 19 17 14 14 13 11 15 18 13 7 8 10 9 10 11 13 14 13 13 12 11 11 8 10 11 10 10 8 8 7 5 7 6 6 7 6 4 6 4 1 1 3 5
nan nan nan nan nan nan nan nan nan nan nan nan nan nan nan nan nan nan nan nan nan nan nan nan nan nan nan nan nan nan nan nan nan nan nan 38 nan 34 21 19 20 20 21 20 17 14 12 11 12 13 18 15 10 8 8 9 12 14 14 14 13 11 10 10 11 10 11 12 11 10 8 8 7 6 7 9 8 7 7 5 5 5 2 2 3 5
nan nan nan nan nan nan nan nan nan nan nan nan nan nan nan nan nan nan nan nan nan nan nan nan nan nan nan nan nan nan nan nan nan nan nan nan nan 39 23 19 20 21 19 19 19 14 11 11 13 15 18 17 11 9 10 11 13 15 15 14 12 11 10 10 12 13 13 12 11 9 7 6 7 7 8 8 7 6 7 6 3 4 3 3 3 4
nan nan nan nan nan nan nan nan nan nan nan nan nan nan nan nan nan nan nan nan nan nan nan nan nan nan nan nan nan nan nan nan nan nan nan nan nan 36 nan 19 19 20 20 19 19 15 12 12 16 19 18 16 13 12 9 9 12 13 14 13 12 11 10 9 11 14 13 12 11 9 7 5 7 6 7 7 7 7 6 5 4 2 4 5 5 4
nan nan nan nan nan nan nan nan nan nan nan nan nan nan nan nan nan nan nan nan nan nan nan nan nan nan nan nan nan nan nan nan nan nan nan nan 35 30 25 22 19 18 20 19 19 17 15 14 11 9 15 18 12 7 6 6 11 12 13 13 13 11 10 10 11 14 13 12 10 9 7 6 7 7 7 6 6 6 5 4 5 6 5 7 8 6
nan nan nan nan nan nan nan nan nan nan nan nan nan nan nan nan nan nan nan nan nan nan nan nan nan nan nan nan nan nan nan nan nan nan nan nan nan 30 29 32 23 20 22 20 21 21 19 13 7 5 11 13 10 8 7 7 10 12 13 14 14 12 11 11 11 13 13 12 11 10 8 7 8 8 7 7 7 8 7 6 6 7 6 7 9 9
nan nan nan nan nan nan nan nan nan nan nan nan nan nan nan nan nan nan nan nan nan nan nan nan nan nan nan nan nan nan nan nan nan nan nan 33 36 29 19 29 35 26 22 19 21 22 19 14 7 8 8 9 7 7 9 8 10 13 13 13 13 13 13 12 12 13 13 13 12 11 10 9 9 9 8 8 7 9 9 9 7 7 8 9 9 10
nan nan nan nan nan nan nan nan nan nan nan nan nan nan nan nan nan nan nan nan nan nan nan nan nan nan nan nan nan nan nan nan nan nan nan nan 33 29 17 24 35 33 24 19 19 21 20 16 7 4 7 7 6 6 8 8 10 13 13 13 13 14 13 13 12 13 13 13 13 12 11 10 10 10 10 9 9 9 10 10 9 9 9 10 10 10
nan nan nan nan nan nan nan nan nan nan nan nan nan nan nan nan nan nan nan nan nan nan nan nan nan nan nan nan nan nan nan nan nan nan nan nan nan 38 24 24 28 36 30 21 20 18 19 19 10 3 5 7 6 6 7 9 11 12 13 14 14 14 14 13 13 13 14 14 14 13 12 11 10 11 12 11 10 10 10 11 10 10 9 10 11 12
nan nan nan nan nan nan nan nan nan nan nan nan nan nan nan nan nan nan nan nan nan nan nan nan nan nan nan nan nan nan nan nan nan nan nan nan 36 40 32 25 24 nan 35 24 19 17 19 18 11 5 7 9 8 7 7 9 10 12 14 15 16 15 14 14 13 14 14 14 14 13 12 11 11 11 12 12 11 11 10 10 11 10 10 10 11 12
nan nan nan nan nan nan nan nan nan nan nan nan nan nan nan nan nan nan nan nan nan nan nan nan nan nan nan nan nan nan nan nan nan nan nan nan nan 42 36 24 20 nan 33 26 22 21 22 18 9 7 9 11 12 11 8 9 11 14 15 16 17 16 15 14 15 14 15 15 14 14 13 12 11 11 11 12 13 12 11 11 10 11 11 10 9 10
nan nan nan nan nan nan nan nan nan nan nan nan nan nan nan nan nan nan nan nan nan nan nan nan nan nan nan nan nan nan nan nan nan nan nan nan nan 39 36 27 19 20 26 22 21 24 24 22 18 10 10 12 12 10 9 12 13 15 15 15 15 16 16 16 15 14 14 15 14 14 15 14 13 11 11 12 13 14 13 13 13 12 12 12 11 11
nan nan nan nan nan nan nan nan nan nan nan nan nan nan nan nan nan nan nan nan nan nan nan nan nan nan nan nan nan nan nan nan nan nan nan nan nan nan 32 27 20 16 26 24 18 19 23 24 20 14 10 12 13 13 11 12 13 13 14 15 14 14 16 16 15 15 14 15 15 16 16 14 14 13 12 12 13 14 14 14 15 15 14 15 15 14
nan nan nan nan nan nan nan nan nan nan nan nan nan nan nan nan nan nan nan nan nan nan nan nan nan nan nan nan nan nan nan nan nan nan nan nan nan 27 29 28 20 16 26 27 17 18 22 22 20 13 8 8 10 13 13 12 12 12 14 14 14 14 15 15 14 15 14 15 15 16 17 16 15 15 14 13 13 13 13 13 14 15 15 16 16 16
nan nan nan nan nan nan nan nan nan nan nan nan nan nan nan nan nan nan nan nan nan nan nan nan nan nan nan nan nan nan nan nan nan nan nan nan nan nan 28 32 24 17 21 25 19 19 20 20 19 14 9 10 11 13 14 13 13 13 13 13 14 13 13 14 15 14 15 15 15 16 16 16 15 15 14 14 14 14 15 15 14 15 16 16 16 17
nan nan nan nan nan nan nan nan nan nan nan nan nan nan nan nan nan nan nan nan nan nan nan nan nan nan nan nan nan nan nan nan nan nan nan nan nan nan nan 31 29 20 18 24 20 18 20 21 20 18 14 10 11 13 14 14 13 13 14 14 14 13 12 13 14 14 15 14 14 15 15 16 15 15 16 15 15 16 16 17 17 17 17 17 17 18
nan nan nan nan nan nan nan nan nan nan nan nan nan nan nan nan nan nan nan nan nan nan nan nan nan nan nan 28 nan nan nan nan nan nan nan nan nan nan nan nan 32 24 16 18 22 19 22 23 22 20 17 12 12 15 15 14 12 12 13 13 14 14 14 14 14 14 15 13 13 15 16 16 16 18 18 18 17 18 18 17 18 19 18 18 18 19
nan nan nan nan nan nan nan nan nan nan nan nan nan nan nan nan nan nan nan nan nan nan nan nan nan nan nan 37 nan nan nan nan nan nan nan nan nan nan nan nan 35 30 21 18 26 25 19 22 22 19 18 16 15 16 15 13 13 13 13 14 14 14 15 15 15 15 16 15 15 15 15 16 17 18 19 19 18 19 19 19 19 19 20 19 18 19
nan nan nan nan nan nan nan nan nan nan nan nan nan nan nan nan nan nan nan nan nan nan nan nan nan nan nan 36 nan nan nan nan nan nan nan nan nan nan nan 29 37 36 26 20 28 28 20 19 20 18 18 17 17 17 15 13 13 13 14 14 15 16 17 16 16 16 17 17 17 16 16 17 17 18 19 19 19 20 20 20 19 20 20 19 18 18
nan nan nan nan nan nan nan nan nan nan nan nan nan nan nan nan nan nan nan nan nan nan nan nan nan nan nan nan nan nan nan nan nan nan nan nan nan 28 36 41 40 38 31 26 32 30 22 21 20 19 19 18 19 18 15 13 13 13 14 14 15 16 17 18 17 18 19 19 18 17 17 18 18 18 18 19 18 18 19 20 20 19 19 19 18 18
nan nan nan nan nan nan 46 nan nan nan nan nan nan nan nan nan nan nan nan nan nan nan nan 25 26 nan nan nan nan nan nan nan nan nan nan nan 37 42 44 42 46 45 40 36 35 36 29 22 22 23 23 23 23 20 16 13 12 13 15 15 14 14 16 17 19 19 20 20 19 18 19 18 19 19 19 19 20 19 19 19 19 18 18 18 18 18
nan nan nan nan nan nan nan 41 nan nan nan nan nan nan nan nan nan nan nan nan nan nan nan 25 30 26 nan nan nan nan nan nan nan nan nan nan 39 42 40 39 42 43 42 36 34 35 36 32 28 28 28 27 26 23 18 15 14 16 17 16 15 13 14 16 18 18 18 19 19 19 20 20 19 19 18 19 20 20 19 19 19 18 17 17 18 17
nan nan nan nan nan nan nan nan nan nan nan nan nan nan nan nan nan nan nan nan nan nan 26 26 32 nan nan nan nan nan nan nan nan nan nan nan 36 38 nan 35 38 38 40 39 35 36 38 36 33 32 31 29 27 25 21 19 19 19 18 16 15 14 14 16 17 16 16 16 17 18 20 20 20 18 17 18 19 20 20 20 20 19 17 16 17 18
nan nan nan nan nan nan nan nan nan nan nan nan nan nan nan nan nan nan nan nan nan nan nan nan 28 25 nan nan nan nan nan nan nan nan nan 28 nan nan nan nan nan 38 42 38 38 37 38 37 35 33 30 28 26 26 25 24 22 22 19 18 17 17 16 17 17 17 17 15 17 18 18 19 19 17 16 17 18 20 21 21 20 20 18 17 17 18
nan nan nan nan nan nan nan nan nan nan nan nan nan nan nan nan nan nan nan nan nan nan nan nan 30 nan nan nan nan nan nan nan nan nan nan nan nan nan nan nan 29 36 37 37 37 38 37 36 35 33 31 29 27 28 28 27 27 25 22 23 21 21 20 18 20 20 20 18 19 18 16 15 17 17 16 17 17 19 21 22 21 20 20 19 18 18
nan nan nan nan nan nan nan nan nan nan nan nan nan nan nan nan nan nan nan nan nan nan nan nan nan nan 35 nan nan nan nan nan nan nan nan nan nan nan nan nan nan 39 40 39 42 42 37 36 34 33 31 30 29 29 27 28 29 27 26 26 26 25 22 20 21 24 24 22 21 20 17 15 15 15 16 17 19 20 22 24 22 21 20 20 20 20
nan nan nan nan nan nan nan nan nan nan nan nan nan nan nan nan nan nan nan nan nan nan nan nan nan 36 35 nan nan nan nan nan nan 30 nan nan 30 nan nan nan nan nan nan nan 36 37 37 36 37 35 33 32 31 28 26 27 27 28 30 29 29 27 24 24 22 26 27 26 25 23 20 17 16 15 15 17 19 21 22 23 23 22 21 21 21 21
nan nan nan nan nan nan nan nan nan nan nan nan nan nan nan nan nan nan nan nan nan nan nan nan nan 34 nan nan nan 52 53 nan nan nan nan nan nan nan nan nan nan nan 30 33 34 34 43 46 43 39 35 32 29 30 28 28 28 32 32 30 29 29 28 27 25 26 29 29 29 27 24 21 19 18 18 19 19 20 21 22 22 23 22 22 21 20
nan nan nan nan nan nan nan nan nan nan nan nan nan nan nan nan nan nan nan nan nan nan nan nan nan nan nan nan nan nan nan nan nan nan nan nan nan nan nan nan nan nan nan nan 30 36 36 40 36 37 37 37 33 30 29 29 28 30 31 31 29 30 30 30 28 27 29 31 32 31 29 26 24 22 21 20 21 20 20 21 23 23 23 22 20 19
nan nan nan nan nan nan nan nan nan nan nan nan nan nan nan nan nan nan nan nan nan nan nan nan nan nan nan nan nan nan nan nan nan nan nan nan nan nan nan nan nan nan nan 27 32 34 34 35 36 35 34 34 31 28 29 30 31 30 32 31 29 30 31 31 29 27 29 31 32 33 33 30 27 25 21 20 19 19 19 21 23 23 23 21 20 20
nan nan nan nan nan nan nan nan nan nan nan nan nan nan nan nan nan nan nan nan nan nan nan nan nan nan nan nan nan nan nan nan nan nan nan nan nan nan 42 47 46 36 38 39 32 29 29 33 33 33 32 31 28 27 28 28 31 33 32 33 32 31 31 30 28 28 29 31 33 34 34 33 30 25 21 18 18 19 19 21 22 22 24 22 21 20
nan nan nan nan nan nan nan nan nan nan nan nan nan nan nan nan nan nan nan nan nan nan nan nan nan nan nan nan nan nan nan nan nan 35 40 45 50 50 47 45 42 41 40 39 35 31 31 30 28 25 25 24 22 23 23 24 26 30 31 33 31 29 29 28 28 29 29 32 34 34 35 34 31 26 21 17 17 19 20 21 21 22 23 22 22 20
nan nan nan nan nan nan nan nan nan nan nan nan nan nan nan nan nan nan nan nan nan nan nan nan nan nan nan 62 56 nan nan nan 42 50 51 55 53 52 47 46 45 42 39 38 37 32 28 26 22 20 21 19 18 17 18 19 20 22 24 27 28 27 27 28 31 32 32 34 35 35 35 34 30 26 21 17 17 18 19 21 21 21 22 22 23 22
nan nan nan nan nan nan nan nan nan nan nan nan nan nan nan nan nan nan nan 67 74 74 74 nan 66 74 69 61 55 53 52 51 55 55 55 55 55 54 50 47 46 44 41 39 37 35 32 29 26 25 24 22 23 23 19 17 17 18 20 22 23 20 22 28 33 36 36 36 36 35 35 34 31 27 22 18 17 18 19 19 19 19 20 21 22 22
nan nan nan nan nan nan nan nan nan nan nan nan nan nan nan nan nan nan 74 67 68 73 77 78 74 72 71 65 63 61 59 56 54 51 51 50 48 46 45 46 45 45 41 40 37 37 36 31 31 28 27 27 23 19 19 20 19 20 21 21 18 18 22 27 30 33 36 36 36 36 35 35 33 29 24 21 21 19 19 19 18 17 18 18 20 20
nan nan nan nan nan nan nan nan nan nan nan nan nan nan nan nan 57 63 70 75 nan 74 78 77 72 66 66 65 64 61 57 58 56 56 54 51 48 45 47 48 48 46 44 41 41 41 39 35 32 32 30 28 30 30 25 22 21 21 23 22 22 25 25 25 27 29 31 34 35 35 35 35 35 32 28 24 23 22 21 21 19 18 18 18 19 19
nan nan nan nan nan nan nan nan nan nan 54 nan nan nan nan nan nan nan nan nan nan nan 72 70 72 66 64 65 64 62 nan 60 60 57 55 53 50 48 48 49 48 45 43 44 41 40 39 36 32 30 29 29 28 26 26 24 22 22 21 23 26 27 27 26 27 27 28 30 31 33 34 34 34 33 30 27 25 24 24 23 22 22 21 21 21 22
nan nan 64 58 nan nan nan nan nan nan nan nan nan nan nan nan nan nan nan nan nan nan nan nan nan 65 63 62 61 nan 60 63 60 57 53 52 50 50 50 48 46 45 43 44 43 40 37 35 35 31 31 32 29 26 24 24 23 22 22 24 26 27 27 25 27 26 26 27 29 31 32 33 33 33 31 29 27 26 26 25 25 24 25 25 24 24
nan nan nan nan nan nan nan nan nan nan nan nan nan nan nan nan nan nan nan nan nan nan nan nan nan nan nan 60 59 62 62 60 60 57 54 52 51 49 48 48 47 46 42 42 42 43 41 37 33 32 33 33 33 30 29 28 26 26 25 26 25 26 25 26 29 28 27 27 28 29 28 29 31 33 31 30 29 28 27 27 26 26 27 26 26 26
nan nan nan nan nan nan nan nan nan nan nan nan nan nan nan nan nan nan nan nan nan nan nan nan nan nan 62 58 58 61 61 60 60 58 53 50 49 49 48 48 46 47 45 43 45 44 41 39 38 37 38 36 36 34 37 37 36 34 32 31 28 27 27 30 31 31 30 27 26 26 26 27 30 32 31 32 31 31 30 28 28 28 29 29 27 28
nan 58 nan nan nan nan nan nan nan nan nan nan nan nan nan nan nan nan nan nan nan nan nan nan nan nan nan nan 60 58 61 61 59 56 54 51 50 49 47 46 47 45 45 43 42 42 42 42 42 42 41 42 40 37 35 33 35 34 33 31 28 27 29 29 29 29 29 27 26 26 25 28 29 31 31 32 32 31 31 30 31 32 32 30 29 30
nan nan nan nan nan nan nan nan nan nan nan nan nan nan nan nan nan nan nan nan nan nan nan nan nan nan nan nan nan 60 60 62 58 57 55 51 48 46 47 47 46 45 44 45 45 43 43 44 45 44 43 42 41 39 39 38 36 35 32 30 27 31 28 28 29 30 28 28 28 27 28 30 32 33 33 38 44 43 40 34 30 38 41 38 33 35
nan nan nan nan nan nan nan nan nan nan nan nan nan nan nan nan nan nan nan nan nan nan nan nan nan nan nan nan nan nan 59 58 58 56 53 50 48 48 48 47 46 44 43 42 42 44 44 45 46 45 45 44 44 44 43 41 37 37 38 36 33 31 30 30 30 30 30 30 30 31 31 32 33 33 35 41 40 41 41 46 51 44 43 40 42 50
nan nan nan nan nan nan nan nan nan nan nan nan nan nan nan nan nan nan nan nan nan nan nan nan nan nan nan nan nan nan nan 59 58 57 52 50 49 49 47 46 45 45 43 41 39 41 44 46 46 45 44 45 45 46 44 43 43 41 40 39 38 38 37 35 34 33 34 34 33 33 32 34 39 40 41 42 41 41 44 44 47 51 51 49 48 53
Wind_Direction
nan nan nan nan nan nan nan nan nan nan nan nan nan nan nan nan nan nan nan nan nan nan nan nan nan nan nan nan nan nan nan nan 287 285 287 281 297 309 301 305 298 303 315 315 321 319 297 281 259 238 244 236 238 229 240 234 246 247 234 232 224 241 224 234 216 216 210 214 213 192 172 161 163 162 168 146 148 132 125 168 228 295 324 354 11 19
nan nan nan nan nan nan nan nan nan nan nan nan nan nan nan nan nan nan nan nan nan nan nan nan nan nan nan nan nan nan nan nan nan 298 308 304 296 300 305 298 303 305 310 317 314 322 302 283 274 243 233 233 247 230 242 231 237 236 246 237 217 236 228 237 227 223 214 220 208 200 181 169 176 179 169 160 150 136 150 208 236 266 304 11 41 33
nan nan nan nan nan nan nan nan nan nan nan nan nan nan nan nan nan nan nan nan nan nan nan nan nan nan nan nan nan nan nan nan nan 298 306 298 298 296 303 311 311 307 318 319 311 314 303 304 286 246 238 218 243 246 254 232 230 225 232 232 213 228 229 233 233 227 218 224 219 201 186 169 194 186 170 159 165 158 169 229 232 259 286 55 45 45
nan nan nan nan nan nan nan nan nan nan nan nan nan nan nan nan nan nan nan nan nan nan nan nan nan nan nan nan nan nan nan nan nan 305 307 302 305 304 308 305 303 309 309 318 315 323 321 301 273 259 243 220 223 222 244 247 242 224 221 235 222 223 232 231 237 229 220 218 223 210 190 180 179 202 184 171 186 168 161 201 223 232 220 55 45 42
nan nan nan nan nan nan nan nan nan nan nan nan nan nan nan nan nan nan nan nan nan nan nan nan nan nan nan nan nan nan nan nan nan nan 304 304 299 295 299 299 300 306 309 317 320 322 319 302 289 268 251 240 225 225 244 252 252 224 234 237 233 222 230 228 241 240 225 214 212 211 196 198 177 195 201 183 169 175 164 160 211 181 214 41 47 36
nan nan nan nan nan nan nan nan nan nan nan nan nan nan nan nan nan nan nan nan nan nan nan nan nan nan nan nan nan nan nan nan nan nan 299 298 292 296 306 300 298 305 310 319 319 315 316 298 264 257 255 248 230 225 235 245 252 241 234 237 234 221 228 225 242 241 228 214 214 218 209 208 196 187 196 176 154 160 160 102 127 201 51 27 49 30
nan nan nan nan nan nan nan nan nan nan nan nan nan nan nan nan nan nan nan nan nan nan nan nan nan nan nan nan nan nan nan nan nan nan nan 296 298 294 299 297 299 306 306 306 304 301 315 313 303 280 267 256 233 233 235 236 243 245 243 245 241 229 228 229 237 245 226 222 213 223 213 208 210 184 178 185 164 165 177 151 185 221 229 53 40 32
nan nan nan nan nan nan nan nan nan nan nan nan nan nan nan nan nan nan nan nan nan nan nan nan nan nan nan nan nan nan nan nan nan nan nan nan 288 291 295 305 300 304 307 302 301 287 317 328 304 293 281 261 238 239 245 245 246 251 253 253 249 231 233 233 239 247 235 229 225 227 215 212 205 182 178 193 187 176 189 178 167 241 229 29 36 52
nan nan nan nan nan nan nan nan nan nan nan nan nan nan nan nan nan nan nan nan nan nan nan nan nan nan nan nan nan nan nan nan nan nan nan 280 nan 287 289 293 296 301 303 310 310 306 299 276 299 282 268 264 239 232 242 249 245 246 251 254 252 247 241 242 254 252 245 236 235 230 219 213 206 196 188 198 200 182 188 214 176 228 285 351 12 44
nan nan nan nan nan nan nan nan nan nan nan nan nan nan nan nan nan nan nan nan nan nan nan nan nan nan nan nan nan nan nan nan nan nan nan nan nan 292 290 284 292 294 297 314 315 309 276 261 239 251 253 251 231 216 221 239 245 248 252 259 267 261 251 248 259 260 257 252 245 240 229 223 220 211 204 206 216 200 200 211 220 199 274 315 338 7
nan nan nan nan nan nan nan nan nan nan nan nan nan nan nan nan nan nan nan nan nan nan nan nan nan nan nan nan nan nan nan nan nan nan nan nan nan 296 nan 286 290 293 297 304 307 300 274 258 246 234 245 251 232 214 225 243 254 264 264 270 278 274 258 259 262 269 270 263 256 247 248 235 233 233 226 223 229 228 218 218 238 234 249 286 297 320
nan nan nan nan nan nan nan nan nan nan nan nan nan nan nan nan nan nan nan nan nan nan nan nan nan nan nan nan nan nan nan nan nan nan nan nan 284 296 301 298 297 292 292 298 294 289 277 263 260 262 261 260 260 243 243 255 261 266 269 276 285 278 272 268 264 272 273 269 266 259 258 255 240 243 235 242 246 261 254 246 240 251 247 263 283 296
nan nan nan nan nan nan nan nan nan nan nan nan nan nan nan nan nan nan nan nan nan nan nan nan nan nan nan nan nan nan nan nan nan nan nan nan nan 280 298 297 295 292 289 290 286 285 283 292 306 295 279 279 273 273 291 295 287 278 274 284 291 288 281 274 272 278 282 278 273 268 268 257 247 251 247 249 249 265 268 262 257 260 269 269 280 297
nan nan nan nan nan nan nan nan nan nan nan nan nan nan nan nan nan nan nan nan nan nan nan nan nan nan nan nan nan nan nan nan nan nan nan 266 283 292 289 286 290 285 279 278 282 288 285 286 274 271 278 277 288 306 302 300 281 272 278 286 294 293 287 278 280 283 286 285 277 272 267 259 252 256 259 252 256 260 268 271 274 280 283 285 292 299
nan nan nan nan nan nan nan nan nan nan nan nan nan nan nan nan nan nan nan nan nan nan nan nan nan nan nan nan nan nan nan nan nan nan nan nan 288 295 297 286 289 285 280 272 273 283 285 281 285 316 320 302 292 310 305 283 270 270 275 283 293 291 291 288 286 279 286 278 279 273 271 267 258 262 262 263 262 261 271 276 284 284 283 286 293 301
nan nan nan nan nan nan nan nan nan nan nan nan nan nan nan nan nan nan nan nan nan nan nan nan nan nan nan nan nan nan nan nan nan nan nan nan nan 289 291 290 285 284 288 281 275 281 284 285 302 338 303 301 293 289 283 284 265 272 275 283 290 290 288 283 281 277 278 276 274 279 282 284 276 264 268 267 270 269 272 279 285 290 289 287 287 294
nan nan nan nan nan nan nan nan nan nan nan nan nan nan nan nan nan nan nan nan nan nan nan nan nan nan nan nan nan nan nan nan nan nan nan nan 273 283 287 289 289 nan 285 285 280 272 272 268 283 315 327 321 315 300 288 281 277 280 273 275 281 280 278 281 282 279 275 276 279 287 291 287 283 283 286 288 294 304 291 286 290 293 299 291 287 291
nan nan nan nan nan nan nan nan nan nan nan nan nan nan nan nan nan nan nan nan nan nan nan nan nan nan nan nan nan nan nan nan nan nan nan nan nan 284 289 291 290 nan 286 294 293 285 285 288 286 338 336 330 326 333 310 286 267 262 264 276 280 280 283 282 280 280 280 287 291 295 301 300 300 294 294 288 295 298 295 295 292 293 296 303 296 293
nan nan nan nan nan nan nan nan nan nan nan nan nan nan nan nan nan nan nan nan nan nan nan nan nan nan nan nan nan nan nan nan nan nan nan nan nan 276 290 294 283 283 275 281 283 281 290 296 318 329 338 336 328 308 284 265 263 255 258 266 279 287 291 289 282 285 283 294 286 290 303 312 307 299 297 291 290 294 300 308 304 305 299 298 298 295
nan nan nan nan nan nan nan nan nan nan nan nan nan nan nan nan nan nan nan nan nan nan nan nan nan nan nan nan nan nan nan nan nan nan nan nan nan nan 282 279 284 280 277 277 277 287 295 305 312 329 339 331 324 311 296 290 276 282 274 271 273 276 273 279 286 288 291 298 296 298 304 310 309 307 306 303 299 300 307 306 307 309 309 303 298 297
nan nan nan nan nan nan nan nan nan nan nan nan nan nan nan nan nan nan nan nan nan nan nan nan nan nan nan nan nan nan nan nan nan nan nan nan nan 270 271 277 277 277 267 283 288 289 294 295 300 310 316 309 301 287 286 283 290 283 274 277 284 284 291 299 302 300 295 294 299 301 308 312 313 316 310 310 309 307 305 301 302 302 301 293 298 297
nan nan nan nan nan nan nan nan nan nan nan nan nan nan nan nan nan nan nan nan nan nan nan nan nan nan nan nan nan nan nan nan nan nan nan nan nan nan 263 275 273 264 266 274 280 287 292 281 277 284 274 266 281 295 304 295 285 287 290 287 289 292 295 306 303 295 291 291 293 304 306 310 307 310 306 314 312 311 307 304 303 299 296 300 298 297
nan nan nan nan nan nan nan nan nan nan nan nan nan nan nan nan nan nan nan nan nan nan nan nan nan nan nan nan nan nan nan nan nan nan nan nan nan nan nan 276 279 272 266 269 267 271 270 259 257 262 268 271 289 291 297 291 295 299 304 297 292 300 309 305 302 293 285 289 294 301 300 299 303 305 311 320 316 323 319 310 306 302 301 303 299 298
nan nan nan nan nan nan nan nan nan nan nan nan nan nan nan nan nan nan nan nan nan nan nan nan nan nan nan 233 nan nan nan nan nan nan nan nan nan nan nan nan 283 284 268 266 275 268 260 262 256 260 277 275 271 274 287 293 293 295 296 303 302 313 313 303 294 292 287 289 294 299 299 300 299 314 319 323 316 321 320 313 307 303 305 305 302 301
nan nan nan nan nan nan nan nan nan nan nan nan nan nan nan nan nan nan nan nan nan nan nan nan nan nan nan 230 nan nan nan nan nan nan nan nan nan nan nan nan 274 280 266 258 264 268 257 260 267 274 288 285 277 282 288 291 291 298 298 302 306 302 302 295 291 295 294 298 304 304 298 305 306 311 316 319 313 319 317 314 310 303 309 309 311 306
nan nan nan nan nan nan nan nan nan nan nan nan nan nan nan nan nan nan nan nan nan nan nan nan nan nan nan 240 nan nan nan nan nan nan nan nan nan nan nan 248 266 273 265 252 255 270 263 256 264 273 280 282 285 287 279 274 278 288 288 298 299 295 295 301 298 298 295 298 301 297 303 301 306 311 314 315 313 315 312 311 309 306 306 312 314 309
nan nan nan nan nan nan nan nan nan nan nan nan nan nan nan nan nan nan nan nan nan nan nan nan nan nan nan nan nan nan nan nan nan nan nan nan nan 226 232 236 245 256 265 255 243 262 263 259 268 277 280 274 281 276 269 265 267 275 275 286 298 294 296 294 294 294 296 300 305 297 304 304 304 300 305 304 302 301 302 307 313 315 313 311 315 318
nan nan nan nan nan nan 194 nan nan nan nan nan nan nan nan nan nan nan nan nan nan nan nan 230 227 nan nan nan nan nan nan nan nan nan nan nan 230 232 233 238 245 249 248 243 242 249 256 265 264 269 269 270 271 272 273 268 264 262 264 276 284 290 293 293 295 294 296 299 301 300 306 301 299 296 296 294 294 294 298 303 307 308 303 302 312 321
nan nan nan nan nan nan nan 180 nan nan nan nan nan nan nan nan nan nan nan nan nan nan nan 222 221 219 nan nan nan nan nan nan nan nan nan nan 238 238 234 241 249 250 252 251 240 243 255 259 261 260 261 264 270 275 276 270 266 258 254 260 268 282 284 281 285 292 299 301 303 303 300 295 293 293 293 293 292 295 297 298 298 298 298 297 305 308
nan nan nan nan nan nan nan nan nan nan nan nan nan nan nan nan nan nan nan nan nan nan 212 222 223 nan nan nan nan nan nan nan nan nan nan nan 236 236 nan 238 250 253 256 256 250 246 247 253 255 255 255 259 267 269 274 269 266 268 267 262 267 270 271 272 283 292 298 306 305 297 295 295 292 290 289 289 291 292 293 289 291 295 297 298 301 300
nan nan nan nan nan nan nan nan nan nan nan nan nan nan nan nan nan nan nan nan nan nan nan nan 237 220 nan nan nan nan nan nan nan nan nan 247 nan nan nan nan nan 252 251 255 254 251 247 250 253 255 258 260 263 267 269 267 266 268 280 271 271 273 275 277 285 298 303 307 305 299 299 298 297 292 290 290 289 286 288 290 289 290 293 295 297 300
nan nan nan nan nan nan nan nan nan nan nan nan nan nan nan nan nan nan nan nan nan nan nan nan 228 nan nan nan nan nan nan nan nan nan nan nan nan nan nan nan 250 253 257 256 255 252 250 253 255 259 262 266 266 262 264 265 268 270 274 276 278 280 285 286 290 299 301 304 305 306 307 304 303 300 297 292 292 288 287 289 291 293 295 299 303 299
nan nan nan nan nan nan nan nan nan nan nan nan nan nan nan nan nan nan nan nan nan nan nan nan nan nan 222 nan nan nan nan nan nan nan nan nan nan nan nan nan nan 236 244 244 244 250 254 254 256 257 261 262 262 262 264 264 267 270 271 273 277 278 290 298 298 295 301 305 307 308 304 301 306 307 302 300 294 287 285 290 296 300 301 306 303 299
nan nan nan nan nan nan nan nan nan nan nan nan nan nan nan nan nan nan nan nan nan nan nan nan nan 246 241 nan nan nan nan nan nan 238 nan nan 243 nan nan nan nan nan nan nan 244 252 246 244 252 257 261 258 260 264 264 262 266 266 268 269 273 282 284 286 289 289 297 299 304 305 302 300 303 307 306 299 296 293 293 297 303 304 300 297 295 302
nan nan nan nan nan nan nan nan nan nan nan nan nan nan nan nan nan nan nan nan nan nan nan nan nan 249 nan nan nan 228 234 nan nan nan nan nan nan nan nan nan nan nan 240 242 240 239 245 243 247 255 252 258 264 263 261 261 261 260 264 268 273 278 280 282 285 281 286 294 296 300 302 301 298 299 298 298 297 298 300 301 298 299 297 297 300 307
nan nan nan nan nan nan nan nan nan nan nan nan nan nan nan nan nan nan nan nan nan nan nan nan nan nan nan nan nan nan nan nan nan nan nan nan nan nan nan nan nan nan nan nan 253 251 246 250 253 253 250 249 246 255 263 266 267 265 268 271 273 275 279 281 281 281 280 288 293 298 300 301 301 301 301 299 294 295 298 297 296 296 294 292 294 297
nan nan nan nan nan nan nan nan nan nan nan nan nan nan nan nan nan nan nan nan nan nan nan nan nan nan nan nan nan nan nan nan nan nan nan nan nan nan nan nan nan nan nan 241 244 247 244 246 247 248 249 250 251 249 254 261 271 268 270 272 276 273 276 279 281 282 280 282 287 292 295 298 303 305 306 302 298 294 291 288 287 287 285 289 289 291
nan nan nan nan nan nan nan nan nan nan nan nan nan nan nan nan nan nan nan nan nan nan nan nan nan nan nan nan nan nan nan nan nan nan nan nan nan nan 223 220 216 218 234 243 244 243 242 240 240 244 244 245 249 248 245 251 260 269 269 272 272 274 275 279 282 281 277 277 282 286 288 293 299 304 305 305 309 301 286 279 277 282 282 286 288 292
nan nan nan nan nan nan nan nan nan nan nan nan nan nan nan nan nan nan nan nan nan nan nan nan nan nan nan nan nan nan nan nan nan 218 210 213 222 223 224 223 226 225 226 232 235 234 232 231 230 227 230 236 239 245 250 246 246 259 270 272 276 277 276 278 279 278 278 274 275 278 281 287 295 299 300 305 307 301 291 284 281 278 278 285 288 290
nan nan nan nan nan nan nan nan nan nan nan nan nan nan nan nan nan nan nan nan nan nan nan nan nan nan nan 226 223 nan nan nan 233 218 206 209 214 222 224 230 232 231 228 230 231 226 222 223 222 222 224 229 237 241 239 248 247 246 261 270 272 273 273 272 271 270 269 269 271 274 278 282 289 294 293 294 299 298 291 280 278 284 286 287 288 291
nan nan nan nan nan nan nan nan nan nan nan nan nan nan nan nan nan nan nan 214 207 213 210 nan 220 223 226 225 227 233 229 220 216 211 207 205 210 212 220 229 232 232 230 227 225 229 225 220 218 218 216 217 219 219 229 241 246 248 252 260 265 268 265 259 258 261 263 266 269 272 276 278 284 290 287 280 286 291 289 284 283 285 286 292 293 295
nan nan nan nan nan nan nan nan nan nan nan nan nan nan nan nan nan nan 220 212 211 219 221 220 224 225 227 225 223 225 224 220 216 211 207 207 206 209 215 220 224 228 226 223 221 225 224 219 219 217 216 220 223 229 228 232 240 245 252 258 265 263 253 251 254 255 257 262 265 268 272 276 279 284 280 273 274 282 286 284 286 285 289 291 290 295
nan nan nan nan nan nan nan nan nan nan nan nan nan nan nan nan 216 214 216 217 nan 219 221 225 225 224 224 224 222 222 222 220 217 212 209 208 205 206 213 215 220 224 226 225 226 225 223 221 216 217 218 216 217 218 228 233 239 244 251 256 254 253 253 250 256 258 258 259 262 264 267 270 275 278 275 271 272 278 281 280 282 283 285 287 286 288
nan nan nan nan nan nan nan nan nan nan 193 nan nan nan nan nan nan nan nan nan nan nan 217 221 222 220 221 221 218 217 nan 221 220 213 208 206 205 204 208 216 218 219 221 224 226 225 223 221 222 222 225 224 222 223 224 228 234 245 250 253 251 253 254 252 259 263 263 261 261 262 263 265 268 273 273 270 268 270 274 276 276 277 278 281 282 282
nan nan 218 213 nan nan nan nan nan nan nan nan nan nan nan nan nan nan nan nan nan nan nan nan nan 218 220 218 216 nan 217 219 218 215 210 209 208 206 207 212 215 215 217 223 226 228 228 225 225 226 226 230 227 227 232 234 234 247 251 251 251 254 256 254 260 264 264 263 261 260 260 260 261 266 268 264 263 266 269 272 273 272 273 276 279 279
nan nan nan nan nan nan nan nan nan nan nan nan nan nan nan nan nan nan nan nan nan nan nan nan nan nan nan 219 216 218 217 217 218 216 212 211 210 209 208 209 211 214 216 221 225 229 228 228 229 232 233 233 231 226 235 236 239 246 250 251 253 255 255 258 260 260 259 257 256 258 260 260 263 262 262 259 258 260 262 266 270 270 271 274 276 277
nan nan nan nan nan nan nan nan nan nan nan nan nan nan nan nan nan nan nan nan nan nan nan nan nan nan 215 215 219 218 217 217 218 217 215 214 212 213 213 213 213 215 218 220 226 228 228 229 231 232 231 233 233 231 234 230 232 238 242 246 248 253 254 255 257 258 256 255 254 256 256 259 259 259 256 255 255 256 260 264 266 267 269 272 275 276
nan 212 nan nan nan nan nan nan nan nan nan nan nan nan nan nan nan nan nan nan nan nan nan nan nan nan nan nan 214 216 218 218 219 219 217 216 215 216 217 217 216 216 219 224 227 227 227 231 235 236 235 234 231 232 233 234 237 237 237 243 244 249 252 256 259 260 259 258 255 253 253 254 263 260 254 254 256 260 264 265 265 268 270 273 276 277
nan nan nan nan nan nan nan nan nan nan nan nan nan nan nan nan nan nan nan nan nan nan nan nan nan nan nan nan nan 213 214 218 218 218 217 216 217 219 220 220 221 221 223 227 230 230 233 232 235 236 236 237 236 235 236 235 236 238 237 237 238 248 250 252 255 256 259 257 255 252 250 252 252 253 254 253 247 244 243 247 262 265 257 253 256 265
nan nan nan nan nan nan nan nan nan nan nan nan nan nan nan nan nan nan nan nan nan nan nan nan nan nan nan nan nan nan 212 216 218 218 218 220 220 219 221 224 224 226 230 232 233 234 233 234 234 237 239 238 236 236 235 237 239 239 240 237 235 244 250 252 252 254 255 254 253 252 251 250 252 254 259 260 257 255 251 245 244 255 268 263 260 261
nan nan nan nan nan nan nan nan nan nan nan nan nan nan nan nan nan nan nan nan nan nan nan nan nan nan nan nan nan nan nan 213 217 217 218 221 224 224 226 227 228 230 234 236 237 237 237 237 238 238 239 239 239 239 237 237 236 236 237 239 240 243 245 246 248 252 253 253 252 251 253 251 247 242 251 260 262 261 261 259 252 247 254 266 268 268